Lapse_Rate
5.7 5.7 5.9 6.1 6.0 6.0 6.1 6.3 6.3 6.3 6.5 6.4 6.3 6.3 6.3 6.3 6.4 6.4 6.5 6.5 6.5 6.5 6.5 6.6 6.6 6.5 6.6 6.5 6.4 6.3 6.4 6.5 6.6 6.6 6.5 6.4 6.3 6.3 6.4 6.3 6.3 6.2 6.1
5.7 5.5 5.8 5.8 6.0 6.1 5.9 6.1 6.2 6.1 6.3 6.3 6.3 6.3 6.3 6.3 6.3 6.4 6.4 6.5 6.5 6.4 6.3 6.4 6.5 6.4 6.5 6.5 6.4 6.2 6.3 6.4 6.3 6.3 6.3 6.4 6.4 6.3 6.2 6.2 6.1 6.0 6.0
5.6 5.6 5.6 5.8 5.8 6.0 6.0 6.0 6.2 6.2 6.2 6.3 6.3 6.3 6.3 6.3 6.3 6.5 6.4 6.5 6.5 6.5 6.3 6.3 6.2 6.3 6.4 6.5 6.4 6.3 6.1 6.0 6.2 6.1 6.0 6.1 6.2 6.2 6.1 6.1 6.2 6.2 6.2
5.7 5.6 5.5 5.6 5.6 5.8 6.1 6.1 6.0 6.3 6.0 6.2 6.3 6.3 6.3 6.3 6.3 6.5 6.5 6.5 6.4 6.4 6.3 6.2 6.3 6.4 6.4 6.4 6.3 6.2 6.1 6.0 6.0 6.1 6.0 5.9 6.0 6.0 6.0 6.0 6.1 6.1 6.2
5.5 5.7 5.7 5.6 5.5 5.6 5.7 6.1 6.1 5.9 6.3 6.1 6.2 6.3 6.2 6.2 6.3 6.3 6.4 6.4 6.3 6.2 6.3 6.3 6.4 6.4 6.3 6.3 6.2 6.1 6.0 6.0 5.9 5.9 5.9 5.8 5.7 5.8 5.8 5.9 5.9 5.9 5.9
5.8 5.6 5.7 5.7 5.7 6.0 5.5 5.8 6.1 6.0 6.0 6.2 6.1 6.0 6.1 6.1 6.2 6.3 6.4 6.4 6.3 6.2 6.2 6.2 6.1 6.2 6.2 6.2 6.2 6.1 6.0 6.0 5.8 5.7 5.7 5.7 5.8 5.8 5.8 5.8 5.8 5.7 5.7
5.9 5.8 5.7 5.7 5.8 5.7 6.0 5.9 5.7 5.9 5.7 6.1 6.1 6.1 5.9 6.0 6.0 6.2 6.3 6.4 6.5 6.3 6.2 6.2 6.3 6.2 6.2 6.1 6.1 6.1 6.0 5.9 5.8 5.6 5.7 5.8 5.7 5.8 5.8 5.8 5.8 5.7 5.7
6.0 6.1 6.0 5.8 5.6 5.8 5.4 5.6 6.0 5.9 5.7 5.6 6.1 6.1 6.1 5.9 6.0 6.1 6.3 6.3 6.4 6.4 6.3 6.3 6.2 6.2 6.1 6.1 6.1 6.0 5.9 5.8 5.6 5.5 5.4 5.4 5.5 5.6 5.6 5.6 5.5 5.5 5.5
5.9 6.0 6.0 5.9 5.8 5.6 5.5 5.7 5.8 5.9 5.9 5.8 5.7 5.9 6.2 6.0 5.9 6.1 6.4 6.4 6.3 6.3 6.3 6.3 6.2 6.1 6.0 6.0 6.0 5.9 5.8 5.7 5.6 5.4 5.4 5.4 5.5 5.5 5.4 5.4 5.3 5.3 5.4
5.8 5.8 5.9 6.0 6.0 5.7 5.7 5.4 5.8 5.3 5.2 5.0 4.9 5.3 5.8 5.7 5.9 6.1 6.4 6.5 6.3 6.3 6.3 6.2 6.1 6.0 6.0 5.9 5.9 5.8 5.7 5.6 5.6 5.4 5.4 5.3 5.3 5.4 5.3 5.2 5.2 5.1 5.1
5.8 5.9 5.9 5.6 5.9 5.9 5.9 5.7 5.8 5.5 5.4 4.7 4.8 5.3 5.0 5.8 6.0 5.9 5.5 6.0 6.2 6.4 6.3 6.1 6.0 5.9 5.9 5.8 5.7 5.6 5.5 5.5 5.4 5.4 5.4 5.3 5.2 5.2 5.1 5.1 5.1 5.1 5.1
6.1 6.0 6.0 5.7 5.7 5.8 5.7 5.6 5.7 5.6 5.8 5.6 5.2 5.4 5.3 5.1 5.7 6.0 6.0 6.2 6.1 5.8 5.6 5.6 5.7 5.8 5.7 5.6 5.5 5.5 5.4 5.3 5.2 5.2 5.3 5.3 5.2 5.2 5.1 5.0 4.9 5.0 5.1
6.0 6.0 5.8 5.8 5.6 5.4 5.4 5.2 5.2 5.0 5.4 5.7 5.4 5.5 5.3 5.7 5.7 5.5 5.3 5.5 5.3 5.4 5.4 5.5 5.6 5.6 5.5 5.5 5.5 5.3 5.2 5.2 5.1 5.1 5.2 5.1 5.0 4.9 4.9 4.7 4.8 5.0 5.1
5.9 5.8 5.7 5.6 5.5 5.3 5.2 5.1 4.9 4.8 4.6 4.9 4.9 4.4 5.3 5.2 5.8 6.1 5.6 5.0 4.7 4.8 5.0 5.3 5.2 5.3 5.4 5.3 5.1 5.1 5.1 5.1 5.1 5.1 5.0 4.9 4.9 4.8 4.7 4.6 4.6 4.8 4.8
6.0 5.6 5.5 5.6 5.4 5.3 5.2 5.2 5.3 4.9 4.9 4.6 4.7 4.7 4.5 5.4 5.2 6.1 5.6 4.9 4.3 4.5 4.8 5.1 5.2 5.2 5.2 5.3 5.2 5.1 5.1 5.1 5.1 5.1 4.9 4.8 4.8 4.8 4.7 4.8 4.7 4.7 4.9
5.8 5.6 5.5 5.5 5.5 5.3 5.3 5.4 5.5 5.8 5.2 5.0 4.9 4.8 4.5 5.0 5.2 5.3 5.0 4.9 4.4 4.2 4.4 4.7 4.9 5.2 5.2 5.2 5.2 5.1 5.1 5.2 5.1 5.1 4.9 4.8 4.8 4.8 4.8 4.9 4.9 4.9 4.9
5.9 5.7 5.7 5.7 5.6 5.5 5.9 6.1 6.1 6.0 6.0 5.5 5.7 5.3 5.0 4.9 5.0 5.0 5.4 4.4 4.4 4.2 4.0 4.5 4.8 5.0 5.1 5.3 5.3 5.2 5.1 5.1 4.9 5.0 4.9 4.8 4.8 4.8 4.8 5.1 4.8 4.9 4.9
5.7 5.7 5.8 5.9 6.1 6.2 6.1 5.9 6.1 6.2 6.1 6.2 5.8 5.9 5.5 5.6 5.0 4.7 5.0 4.5 4.3 4.3 4.0 4.4 4.9 4.9 5.0 5.0 5.0 5.0 5.0 5.0 4.9 4.9 4.9 4.8 5.0 4.9 5.0 5.0 4.9 4.9 4.9
5.5 5.4 5.6 5.8 5.9 6.1 6.4 6.3 6.0 6.1 6.1 5.9 5.9 6.1 5.9 5.9 5.1 4.4 4.5 3.9 4.3 3.8 4.2 4.5 4.7 4.9 5.0 4.9 5.0 4.9 5.1 5.1 4.9 4.9 4.9 5.0 5.0 5.0 5.0 5.0 5.0 5.0 4.8
5.6 5.8 6.2 5.9 6.0 6.0 6.1 6.0 5.9 5.8 5.7 6.1 6.2 6.1 5.9 5.8 5.4 4.4 4.0 4.2 4.2 3.8 4.1 4.7 4.9 4.7 5.1 5.2 5.0 5.1 5.3 5.1 4.9 4.8 4.9 4.9 4.9 5.1 5.0 5.0 4.8 4.7 4.8
5.6 6.1 6.0 5.9 5.8 5.7 5.8 5.9 6.0 5.9 5.7 5.9 6.2 6.0 5.8 5.7 5.3 4.4 4.2 4.3 3.8 3.9 4.0 5.1 5.3 5.0 4.9 5.2 5.3 5.2 5.0 4.8 4.9 5.0 4.8 4.8 4.9 4.9 4.7 4.6 4.8 4.8 4.5
6.1 6.3 6.1 5.9 6.2 5.9 5.7 5.8 5.7 5.6 5.7 5.7 5.6 5.5 5.5 5.7 5.3 4.5 4.6 4.3 4.1 3.8 4.0 4.6 5.3 5.7 5.3 5.1 5.2 5.3 4.8 5.2 5.2 4.7 4.9 4.8 4.7 4.8 4.7 4.7 4.8 4.6 4.4
6.2 6.2 6.1 6.0 6.1 6.2 5.8 5.4 5.6 5.4 5.4 5.5 5.5 5.5 5.6 5.7 5.2 4.8 4.6 4.2 4.1 4.1 3.9 4.0 4.7 5.5 5.7 5.9 5.6 5.1 5.3 5.0 5.1 5.2 5.2 5.0 4.6 4.8 4.7 4.6 4.4 4.3 4.2
6.2 6.3 6.2 6.0 6.0 5.9 5.9 5.6 5.5 5.3 5.3 5.0 5.1 5.2 5.4 5.7 5.3 5.0 4.5 4.5 4.4 4.3 4.3 4.7 5.4 5.7 5.7 6.2 6.2 5.7 5.1 5.0 4.8 4.8 4.8 5.0 4.7 4.3 4.3 4.4 4.1 4.0 4.1
6.3 6.1 6.4 6.1 6.2 5.9 6.2 6.0 5.5 5.4 5.1 4.8 4.9 5.0 5.3 5.4 5.5 5.3 4.7 4.6 4.7 4.7 5.0 5.3 5.6 6.2 6.5 6.1 5.8 5.2 5.0 4.7 4.6 5.0 5.0 4.5 4.4 4.1 4.1 3.7 3.7 3.9 4.3
6.5 6.6 6.5 6.4 6.3 6.1 5.8 6.1 5.7 5.2 5.1 4.9 4.9 5.2 5.2 5.3 5.3 4.8 4.9 5.2 5.1 4.9 4.7 4.9 5.5 5.6 5.4 5.2 5.0 4.7 4.8 5.2 5.3 4.8 4.3 4.1 4.0 3.8 3.8 3.6 3.7 3.8 4.4
Wind_Speed
10 13 12 14 15 17 15 13 11 12 11 12 11 13 13 11 9 7 12 13 14 12 12 14 13 13 15 14 12 12 9 12 13 13 11 12 11 11 12 12 11 12 13
10 8 10 10 13 16 16 15 11 9 7 13 10 16 13 13 10 9 9 11 11 15 14 13 15 14 13 14 13 13 13 12 11 10 11 9 9 11 11 11 11 11 11
13 11 9 10 12 17 18 16 12 15 7 11 11 12 11 11 11 11 11 10 10 13 14 14 15 13 14 13 17 15 13 11 9 8 8 8 10 10 10 9 10 11 11
18 11 9 9 16 16 15 10 9 8 11 10 9 8 8 10 11 9 8 6 7 10 13 15 12 12 14 16 13 11 10 10 10 9 8 8 9 9 9 9 9 9 10
22 15 8 10 16 10 11 11 11 10 9 11 10 8 7 7 10 10 8 5 6 5 8 11 14 14 13 13 10 9 10 10 10 10 9 9 8 8 8 8 8 9 10
18 16 8 6 9 9 11 11 13 10 9 10 9 8 6 6 9 9 9 6 7 7 10 16 15 13 17 10 9 9 9 9 8 8 8 8 8 7 7 7 8 8 9
16 12 11 8 4 5 8 13 11 13 8 11 8 6 5 4 7 6 8 8 7 6 8 10 12 12 12 9 9 9 9 8 9 8 8 7 7 6 6 6 6 7 7
15 12 11 12 11 7 6 9 9 9 6 10 8 7 3 2 3 5 5 6 8 7 6 9 11 11 11 10 9 8 9 9 9 9 8 7 6 5 5 5 5 5 5
11 11 10 10 12 11 10 13 10 13 6 7 7 7 3 4 4 2 6 7 8 7 9 8 10 10 10 9 10 7 5 8 9 8 8 6 5 4 3 4 4 4 5
7 11 11 11 13 11 12 13 12 12 9 10 2 7 10 7 7 4 3 7 8 8 7 7 10 10 11 10 8 6 7 7 9 8 7 6 4 3 3 3 3 4 5
6 7 8 10 11 10 13 16 15 15 12 12 10 9 3 7 10 7 7 6 8 8 7 10 11 11 11 11 11 11 10 10 9 8 7 6 5 3 1 2 2 3 4
5 7 6 8 11 12 13 13 17 19 15 13 13 12 10 8 8 7 6 13 11 10 9 9 10 11 12 12 12 12 12 11 9 8 6 6 6 4 1 1 2 2 4
5 8 8 7 6 8 13 14 16 16 17 15 17 14 13 13 9 11 7 10 8 6 6 8 12 13 13 13 13 14 13 11 10 7 6 7 7 6 2 2 2 3 4
8 11 12 11 15 16 11 13 12 13 16 15 19 17 12 12 10 9 9 9 6 7 7 8 9 14 15 15 15 18 14 12 11 8 7 7 8 6 4 2 3 3 4
8 10 11 14 15 16 14 14 12 15 15 16 17 18 14 12 11 10 9 10 8 7 11 10 6 17 16 16 16 18 14 14 12 10 8 8 8 6 5 4 4 4 5
13 12 12 13 15 15 17 15 11 15 16 14 14 17 17 13 13 11 8 9 8 6 5 7 9 9 17 16 17 17 14 14 12 11 10 9 8 6 6 5 6 5 5
12 11 14 14 14 15 16 16 15 15 17 17 18 17 19 19 12 12 9 8 8 6 5 2 6 6 13 12 15 16 13 13 12 12 11 10 9 7 6 5 5 5 7
11 11 14 13 13 14 16 17 19 16 16 18 19 20 19 15 17 16 11 11 9 8 4 8 6 6 9 12 15 14 13 12 11 12 11 10 10 8 7 6 5 5 6
12 11 13 13 13 15 15 16 18 18 18 19 19 18 19 18 16 14 13 11 7 5 5 7 5 6 4 10 10 11 11 11 11 10 11 10 9 8 7 6 6 5 6
11 11 11 12 13 14 14 16 16 16 15 16 18 18 19 20 20 18 14 14 10 8 5 7 5 8 7 11 9 9 8 7 7 11 10 9 8 8 7 7 5 5 5
11 13 11 11 12 12 11 15 16 16 14 15 15 15 15 17 21 21 13 12 11 9 7 7 6 6 7 10 12 9 8 7 8 9 6 9 9 9 9 8 6 6 7
11 12 11 12 12 9 15 20 17 12 13 13 13 13 12 14 16 17 18 19 18 14 11 7 7 9 11 10 10 10 8 8 6 12 7 6 10 6 8 8 5 6 10
13 13 11 9 10 12 17 21 21 10 9 8 10 10 7 8 14 15 13 13 9 10 13 14 11 9 9 13 13 12 10 8 3 5 6 6 7 6 6 5 5 7 8
11 12 11 8 6 7 16 19 19 11 10 8 9 9 9 11 14 14 12 11 10 8 8 7 10 10 9 12 12 8 10 7 6 5 4 4 3 4 5 7 6 8 5
10 10 11 10 6 5 15 21 19 11 8 10 8 9 10 13 18 20 14 12 11 7 7 10 13 16 20 23 19 9 7 7 3 4 4 3 3 2 3 5 7 11 5
10 9 10 9 8 6 11 16 14 5 7 4 5 8 15 14 24 23 14 14 12 11 12 12 12 14 19 19 17 8 8 7 4 3 5 4 3 2 2 2 5 8 9
Wind_Direction
185 184 185 184 185 185 181 175 177 156 169 154 166 162 181 181 181 163 151 157 147 150 154 154 142 137 133 124 127 122 105 104 98 86 83 75 69 75 67 61 58 55 51
186 183 185 188 187 184 188 176 170 156 170 174 180 182 190 185 187 158 153 164 168 159 158 153 150 143 138 139 135 128 104 93 83 84 82 87 84 77 75 65 56 52 51
190 183 184 189 190 188 187 171 172 169 158 183 181 188 182 186 191 168 146 160 167 160 164 167 154 161 163 158 130 113 103 98 100 95 96 95 90 76 64 61 59 51 44
188 195 188 189 191 187 184 182 163 176 179 181 178 180 185 183 181 165 158 124 166 178 172 166 168 175 147 125 120 114 107 121 116 113 108 99 86 78 72 62 57 52 43
194 188 198 192 191 179 184 184 175 173 182 184 176 170 174 178 179 163 122 121 121 117 151 134 120 123 119 111 114 134 136 130 129 125 116 106 92 81 71 62 56 50 40
197 194 181 196 194 198 183 180 174 176 178 179 164 161 169 175 179 180 146 126 109 111 114 121 124 114 102 122 139 142 140 134 128 123 114 108 100 85 73 64 57 49 44
201 195 196 162 158 196 200 188 176 160 179 166 143 131 140 179 186 179 170 151 127 118 128 122 133 129 124 130 150 151 147 144 138 129 119 108 97 83 73 66 59 49 43
202 196 185 179 173 167 176 167 174 167 164 172 170 152 155 164 236 192 188 177 162 150 159 166 154 149 152 163 156 162 163 158 153 146 136 123 108 92 76 60 51 47 42
200 197 191 184 176 182 177 167 170 172 155 187 206 176 157 191 145 217 216 194 179 181 170 177 159 158 167 167 165 155 147 167 163 160 153 141 122 101 76 54 40 34 28
201 198 197 187 184 183 178 180 172 168 154 185 218 237 215 157 184 179 221 207 199 196 179 180 176 169 171 172 177 163 159 168 172 170 170 164 147 109 73 40 21 18 13
199 198 198 189 185 184 190 185 183 181 179 179 184 185 258 205 204 195 191 192 204 203 194 193 185 178 178 177 179 177 175 178 178 176 183 183 172 142 74 23 7 3 359
192 198 192 199 191 189 190 193 194 189 190 193 184 191 194 195 195 200 211 194 202 195 196 197 192 186 183 183 188 179 179 182 185 187 188 197 185 176 177 322 337 341 351
207 212 200 197 206 195 203 193 198 197 201 204 195 198 197 201 207 208 208 170 197 172 197 203 198 191 187 187 189 184 184 186 185 188 198 196 189 188 199 293 322 329 337
222 224 219 215 217 216 201 203 203 206 202 209 207 206 202 200 197 191 181 166 178 186 197 189 196 197 192 191 188 184 185 185 185 190 194 194 185 194 210 262 300 309 314
218 213 217 220 222 221 214 201 203 203 210 210 215 210 202 203 198 194 184 185 167 188 207 192 178 199 193 188 188 186 188 185 187 189 191 185 187 198 223 236 263 285 308
227 216 212 222 223 224 223 221 213 209 207 213 213 209 207 202 202 204 192 187 196 173 187 185 199 181 187 188 185 187 189 179 189 192 190 189 190 205 219 231 255 258 293
235 224 224 219 217 222 223 220 215 212 209 215 213 212 206 201 196 201 198 184 187 176 159 128 174 180 183 184 178 188 182 186 193 196 191 191 194 207 228 233 242 264 290
246 231 232 232 223 219 219 221 226 218 208 210 213 210 202 204 193 199 196 182 181 175 144 152 164 166 188 190 181 182 182 191 196 191 192 199 203 215 227 217 232 265 280
304 241 235 229 225 225 218 221 224 221 216 209 205 207 197 197 197 195 196 192 173 158 135 149 143 166 154 180 178 185 185 188 197 184 198 203 209 212 212 227 243 246 272
311 284 239 232 230 222 223 222 223 222 215 208 203 200 200 196 197 194 192 193 170 157 138 143 143 163 158 179 180 178 185 194 192 195 201 216 206 205 217 230 232 247 268
314 298 260 236 231 227 220 217 217 212 209 205 193 191 200 200 206 194 187 185 170 164 154 157 151 156 163 169 189 179 189 186 198 195 200 204 208 218 225 226 235 232 281
319 308 282 249 244 228 217 211 207 206 203 193 185 186 192 194 199 194 202 192 184 172 170 168 170 180 179 182 180 177 182 176 191 199 205 210 212 219 231 235 216 276 275
322 314 308 280 246 232 211 200 200 193 180 187 180 170 164 184 198 186 170 171 180 181 185 180 178 179 166 182 173 172 178 184 159 146 182 206 194 232 222 224 248 261 244
319 311 314 297 267 232 200 193 182 181 170 173 179 175 168 180 190 167 154 162 171 167 161 173 178 174 173 167 168 162 160 132 98 133 192 207 179 227 211 237 227 219 189
318 315 313 310 285 247 203 193 182 171 163 163 176 180 183 187 175 156 150 156 151 148 134 126 124 130 141 154 146 133 146 147 150 172 182 195 172 248 244 244 224 210 237
314 312 309 303 295 264 224 196 177 161 147 140 164 181 195 191 162 156 151 153 151 149 140 126 116 118 128 134 135 143 150 162 130 163 170 183 174 212 255 195 234 214 252